Time,TemperatureF,DewpointF,PressureIn,WindDirection,WindDirectionDegrees,WindSpeedMPH,WindSpeedGustMPH,Humidity,HourlyPrecipIn,Conditions,Clouds,dailyrainin,SolarRadiationWatts/m^2,SoftwareType,DateUTC
2013-06-14 00:01:00,53.8,51.5,29.69,NW,321,3.0,3.0,92,0.00,,,0.00,0.00,VWS V14.00,2013-06-14 04:01:00,
2013-06-14 00:06:00,53.8,51.5,29.69,NW,322,1.0,2.0,92,0.00,,,0.00,0.00,VWS V14.00,2013-06-14 04:06:00,
2013-06-14 00:11:00,53.8,51.5,29.69,NW,322,2.0,3.0,92,0.00,,,0.00,0.00,VWS V14.00,2013-06-14 04:11:00,
2013-06-14 00:17:00,53.8,51.5,29.68,NW,322,2.0,2.0,92,0.00,,,0.00,0.00,VWS V14.00,2013-06-14 04:17:00,
2013-06-14 00:22:00,53.8,51.5,29.68,NW,321,0.0,2.0,92,0.00,,,0.00,0.00,VWS V14.00,2013-06-14 04:22:00,
2013-06-14 00:27:00,53.7,51.4,29.68,NW,322,2.0,2.0,92,0.00,,,0.00,0.00,VWS V14.00,2013-06-14 04:27:00,
2013-06-14 00:32:00,53.7,51.4,29.68,NW,322,2.0,2.0,92,0.00,,,0.00,0.00,VWS V14.00,2013-06-14 04:32:00,
2013-06-14 00:37:00,53.7,51.4,29.68,NW,321,2.0,3.0,92,0.00,,,0.00,0.00,VWS V14.00,2013-06-14 04:37:00,
2013-06-14 00:42:00,53.7,51.4,29.68,NW,322,2.0,2.0,92,0.00,,,0.00,0.00,VWS V14.00,2013-06-14 04:42:00,
2013-06-14 00:47:00,53.7,51.4,29.68,NW,322,0.0,1.0,92,0.00,,,0.00,0.00,VWS V14.00,2013-06-14 04:47:00,
2013-06-14 00:52:00,53.7,51.4,29.68,NW,322,0.0,2.0,92,0.00,,,0.00,0.00,VWS V14.00,2013-06-14 04:52:00,
2013-06-14 00:57:00,53.7,51.7,29.67,NW,322,0.0,0.0,93,0.00,,,0.00,0.00,VWS V14.00,2013-06-14 04:57:00,
2013-06-14 01:02:00,53.7,51.4,29.67,NW,322,0.0,0.0,92,0.00,,,0.00,0.00,VWS V14.00,2013-06-14 05:02:00,
2013-06-14 01:07:00,53.7,51.7,29.67,NW,322,0.0,2.0,93,0.00,,,0.00,0.00,VWS V14.00,2013-06-14 05:07:00,
2013-06-14 01:11:00,53.7,51.4,29.67,NW,322,0.0,0.0,92,0.00,,,0.00,0.00,VWS V14.00,2013-06-14 05:11:00,
2013-06-14 01:16:00,53.6,51.3,29.67,NW,322,2.0,4.0,92,0.00,,,0.00,0.00,VWS V14.00,2013-06-14 05:16:00,
2013-06-14 01:21:00,53.6,51.3,29.67,NW,322,2.0,3.0,92,0.00,,,0.00,0.00,VWS V14.00,2013-06-14 05:21:00,
2013-06-14 01:27:00,53.5,51.2,29.67,NW,322,0.0,3.0,92,0.00,,,0.00,0.00,VWS V14.00,2013-06-14 05:27:00,
2013-06-14 01:32:00,53.4,51.1,29.67,NW,322,0.0,0.0,92,0.00,,,0.00,0.00,VWS V14.00,2013-06-14 05:32:00,
2013-06-14 01:36:00,53.4,51.1,29.67,NW,322,0.0,2.0,92,0.00,,,0.00,0.00,VWS V14.00,2013-06-14 05:36:00,
2013-06-14 01:42:00,53.4,51.1,29.66,NW,322,0.0,3.0,92,0.00,,,0.00,0.00,VWS V14.00,2013-06-14 05:42:00,
2013-06-14 01:47:00,53.4,51.1,29.66,NW,322,0.0,0.0,92,0.00,,,0.00,0.00,VWS V14.00,2013-06-14 05:47:00,
2013-06-14 01:52:00,53.3,51.0,29.66,NW,322,3.0,3.0,92,0.00,,,0.00,0.00,VWS V14.00,2013-06-14 05:52:00,
2013-06-14 01:56:00,53.3,51.3,29.66,NW,322,0.0,2.0,93,0.00,,,0.00,0.00,VWS V14.00,2013-06-14 05:56:00,
2013-06-14 02:01:00,53.2,50.9,29.66,NW,322,1.0,3.0,92,0.00,,,0.00,0.00,VWS V14.00,2013-06-14 06:01:00,
2013-06-14 02:06:00,53.1,50.8,29.66,NW,322,2.0,2.0,92,0.00,,,0.00,0.00,VWS V14.00,2013-06-14 06:06:00,
2013-06-14 02:11:00,53.0,50.7,29.66,NW,322,1.0,1.0,92,0.00,,,0.00,0.00,VWS V14.00,2013-06-14 06:11:00,
2013-06-14 02:16:00,53.0,50.7,29.66,NW,322,0.0,2.0,92,0.00,,,0.00,0.00,VWS V14.00,2013-06-14 06:16:00,
2013-06-14 02:21:00,52.9,50.6,29.66,NW,321,3.0,3.0,92,0.00,,,0.00,0.00,VWS V14.00,2013-06-14 06:21:00,
2013-06-14 02:26:00,52.9,50.6,29.66,NW,322,1.0,1.0,92,0.00,,,0.00,0.00,VWS V14.00,2013-06-14 06:26:00,
2013-06-14 02:32:00,52.8,50.5,29.66,NW,321,0.0,2.0,92,0.00,,,0.00,0.00,VWS V14.00,2013-06-14 06:32:00,
2013-06-14 02:37:00,52.7,50.5,29.66,NW,322,0.0,1.0,92,0.00,,,0.00,0.00,VWS V14.00,2013-06-14 06:37:00,
2013-06-14 02:42:00,52.6,50.3,29.65,NW,322,0.0,3.0,92,0.00,,,0.00,0.00,VWS V14.00,2013-06-14 06:42:00,
2013-06-14 02:46:00,52.6,50.3,29.65,NW,322,0.0,0.0,92,0.00,,,0.00,0.00,VWS V14.00,2013-06-14 06:46:00,
2013-06-14 02:52:00,52.4,50.2,29.66,NW,322,0.0,2.0,92,0.00,,,0.00,0.00,VWS V14.00,2013-06-14 06:52:00,
2013-06-14 02:57:00,52.4,50.4,29.66,NW,322,0.0,0.0,93,0.00,,,0.00,0.00,VWS V14.00,2013-06-14 06:57:00,
2013-06-14 03:02:00,52.3,50.3,29.66,NW,322,0.0,0.0,93,0.00,,,0.00,0.00,VWS V14.00,2013-06-14 07:02:00,
2013-06-14 03:06:00,52.3,50.3,29.66,NW,322,0.0,1.0,93,0.00,,,0.00,0.00,VWS V14.00,2013-06-14 07:06:00,
2013-06-14 03:12:00,52.3,50.3,29.66,NW,322,0.0,1.0,93,0.00,,,0.00,0.00,VWS V14.00,2013-06-14 07:12:00,
2013-06-14 03:16:00,52.3,50.3,29.66,NW,322,0.0,2.0,93,0.00,,,0.00,0.00,VWS V14.00,2013-06-14 07:16:00,
2013-06-14 03:21:00,52.3,50.3,29.66,NW,322,1.0,3.0,93,0.00,,,0.00,0.00,VWS V14.00,2013-06-14 07:21:00,
2013-06-14 03:26:00,52.3,50.3,29.66,NW,322,0.0,3.0,93,0.00,,,0.00,0.00,VWS V14.00,2013-06-14 07:26:00,
2013-06-14 03:31:00,52.2,50.2,29.66,NW,322,2.0,3.0,93,0.00,,,0.00,0.00,VWS V14.00,2013-06-14 07:31:00,
2013-06-14 03:36:00,52.2,50.2,29.66,NW,322,0.0,0.0,93,0.00,,,0.00,0.00,VWS V14.00,2013-06-14 07:36:00,
2013-06-14 03:41:00,52.2,50.2,29.66,NW,321,0.0,1.0,93,0.00,,,0.00,0.00,VWS V14.00,2013-06-14 07:41:00,
2013-06-14 03:46:00,52.3,50.3,29.66,NW,322,2.0,4.0,93,0.00,,,0.00,0.00,VWS V14.00,2013-06-14 07:46:00,
2013-06-14 03:51:00,52.3,50.3,29.66,NW,322,0.0,2.0,93,0.00,,,0.00,0.00,VWS V14.00,2013-06-14 07:51:00,
2013-06-14 03:56:00,52.3,50.3,29.66,NW,322,0.0,0.0,93,0.00,,,0.00,0.00,VWS V14.00,2013-06-14 07:56:00,
2013-06-14 04:01:00,52.3,50.3,29.67,NW,322,0.0,2.0,93,0.00,,,0.00,0.00,VWS V14.00,2013-06-14 08:01:00,
2013-06-14 04:06:00,52.3,50.3,29.67,NW,322,0.0,0.0,93,0.00,,,0.00,0.00,VWS V14.00,2013-06-14 08:06:00,
2013-06-14 04:11:00,52.4,50.4,29.67,NW,322,0.0,1.0,93,0.00,,,0.00,0.00,VWS V14.00,2013-06-14 08:11:00,
2013-06-14 04:16:00,52.4,50.4,29.67,NW,321,0.0,2.0,93,0.00,,,0.00,0.00,VWS V14.00,2013-06-14 08:16:00,
2013-06-14 04:21:00,52.4,50.4,29.67,NW,322,0.0,0.0,93,0.00,,,0.00,0.00,VWS V14.00,2013-06-14 08:21:00,
2013-06-14 04:26:00,52.4,50.4,29.67,NW,322,2.0,2.0,93,0.00,,,0.00,0.00,VWS V14.00,2013-06-14 08:26:00,
2013-06-14 04:31:00,52.3,50.3,29.67,NW,322,0.0,0.0,93,0.00,,,0.00,0.00,VWS V14.00,2013-06-14 08:31:00,
2013-06-14 04:36:00,52.3,50.3,29.67,NW,321,0.0,2.0,93,0.00,,,0.00,0.00,VWS V14.00,2013-06-14 08:36:00,
2013-06-14 04:41:00,52.2,50.2,29.67,NW,322,0.0,2.0,93,0.00,,,0.00,0.00,VWS V14.00,2013-06-14 08:41:00,
2013-06-14 04:46:00,52.2,50.2,29.67,NW,321,2.0,4.0,93,0.00,,,0.00,0.00,VWS V14.00,2013-06-14 08:46:00,
2013-06-14 04:51:00,52.1,50.1,29.67,NW,322,2.0,2.0,93,0.00,,,0.00,0.00,VWS V14.00,2013-06-14 08:51:00,
2013-06-14 04:56:00,52.1,50.1,29.67,NW,321,3.0,3.0,93,0.00,,,0.00,0.00,VWS V14.00,2013-06-14 08:56:00,
2013-06-14 05:01:00,52.0,50.0,29.68,NW,322,1.0,2.0,93,0.00,,,0.00,0.00,VWS V14.00,2013-06-14 09:01:00,
2013-06-14 05:06:00,52.1,50.1,29.68,NW,322,0.0,0.0,93,0.00,,,0.00,0.00,VWS V14.00,2013-06-14 09:06:00,
2013-06-14 05:11:00,52.0,50.0,29.68,NW,322,0.0,1.0,93,0.00,,,0.00,0.00,VWS V14.00,2013-06-14 09:11:00,
2013-06-14 05:16:00,52.0,50.0,29.68,NW,322,0.0,0.0,93,0.00,,,0.00,0.00,VWS V14.00,2013-06-14 09:16:00,
2013-06-14 05:21:00,52.0,50.0,29.68,NW,322,0.0,3.0,93,0.00,,,0.00,5.00,VWS V14.00,2013-06-14 09:21:00,
2013-06-14 05:26:00,52.0,50.0,29.68,NW,322,0.0,0.0,93,0.00,,,0.00,7.00,VWS V14.00,2013-06-14 09:26:00,
2013-06-14 05:31:00,52.0,50.0,29.68,NW,322,0.0,3.0,93,0.00,,,0.00,9.00,VWS V14.00,2013-06-14 09:31:00,
2013-06-14 05:36:00,52.0,50.0,29.68,NW,322,0.0,1.0,93,0.00,,,0.00,14.00,VWS V14.00,2013-06-14 09:36:00,
2013-06-14 05:41:00,52.0,50.0,29.68,NW,322,0.0,2.0,93,0.00,,,0.00,19.00,VWS V14.00,2013-06-14 09:41:00,
2013-06-14 05:46:00,51.9,49.9,29.68,NW,321,2.0,4.0,93,0.00,,,0.00,30.00,VWS V14.00,2013-06-14 09:46:00,
2013-06-14 05:51:00,51.9,49.9,29.69,NW,322,0.0,2.0,93,0.00,,,0.00,37.00,VWS V14.00,2013-06-14 09:51:00,
2013-06-14 05:56:00,51.8,49.8,29.69,NW,321,0.0,1.0,93,0.00,,,0.00,39.00,VWS V14.00,2013-06-14 09:56:00,
2013-06-14 06:01:00,51.8,49.8,29.69,NW,322,2.0,4.0,93,0.00,,,0.00,40.00,VWS V14.00,2013-06-14 10:01:00,
2013-06-14 06:06:00,51.8,49.8,29.68,NW,322,2.0,3.0,93,0.00,,,0.00,44.00,VWS V14.00,2013-06-14 10:06:00,
2013-06-14 06:11:00,51.9,49.9,29.68,NW,322,2.0,3.0,93,0.00,,,0.00,46.00,VWS V14.00,2013-06-14 10:11:00,
2013-06-14 06:16:00,51.9,49.9,29.68,NW,322,2.0,2.0,93,0.00,,,0.00,47.00,VWS V14.00,2013-06-14 10:16:00,
2013-06-14 06:21:00,51.9,49.9,29.68,NW,322,0.0,2.0,93,0.00,,,0.00,51.00,VWS V14.00,2013-06-14 10:21:00,
2013-06-14 06:26:00,51.9,49.9,29.68,NW,321,0.0,2.0,93,0.00,,,0.00,58.00,VWS V14.00,2013-06-14 10:26:00,
2013-06-14 06:31:00,52.0,50.3,29.68,NW,321,0.0,1.0,94,0.00,,,0.00,69.00,VWS V14.00,2013-06-14 10:31:00,
2013-06-14 06:36:00,52.1,50.4,29.68,NW,322,0.0,0.0,94,0.00,,,0.00,77.00,VWS V14.00,2013-06-14 10:36:00,
2013-06-14 06:41:00,52.1,50.4,29.68,NW,322,0.0,0.0,94,0.00,,,0.00,84.00,VWS V14.00,2013-06-14 10:41:00,
2013-06-14 06:46:00,52.3,50.6,29.68,NW,322,0.0,0.0,94,0.00,,,0.00,93.00,VWS V14.00,2013-06-14 10:46:00,
2013-06-14 06:51:00,52.5,50.8,29.69,NW,322,0.0,0.0,94,0.00,,,0.00,102.00,VWS V14.00,2013-06-14 10:51:00,
2013-06-14 06:56:00,52.7,51.0,29.69,NW,322,0.0,0.0,94,0.00,,,0.00,109.00,VWS V14.00,2013-06-14 10:56:00,
2013-06-14 07:01:00,53.0,51.3,29.69,NW,321,0.0,1.0,94,0.00,,,0.00,113.00,VWS V14.00,2013-06-14 11:01:00,
2013-06-14 07:06:00,53.2,51.5,29.69,NW,322,2.0,3.0,94,0.00,,,0.00,109.00,VWS V14.00,2013-06-14 11:06:00,
2013-06-14 07:11:00,53.6,51.9,29.69,NW,322,0.0,1.0,94,0.00,,,0.00,105.00,VWS V14.00,2013-06-14 11:11:00,
2013-06-14 07:16:00,53.8,52.1,29.69,NW,322,0.0,0.0,94,0.00,,,0.00,109.00,VWS V14.00,2013-06-14 11:16:00,
2013-06-14 07:21:00,54.1,52.4,29.69,NW,322,0.0,0.0,94,0.00,,,0.00,121.00,VWS V14.00,2013-06-14 11:21:00,
2013-06-14 07:26:00,54.5,52.8,29.69,NW,322,0.0,2.0,94,0.00,,,0.00,206.00,VWS V14.00,2013-06-14 11:26:00,
2013-06-14 07:31:00,54.9,53.2,29.69,NW,322,2.0,2.0,94,0.00,,,0.00,218.00,VWS V14.00,2013-06-14 11:31:00,
2013-06-14 07:36:00,55.4,53.7,29.69,NW,322,1.0,3.0,94,0.00,,,0.00,190.00,VWS V14.00,2013-06-14 11:36:00,
2013-06-14 07:41:00,55.8,54.1,29.69,NW,322,2.0,2.0,94,0.00,,,0.00,213.00,VWS V14.00,2013-06-14 11:41:00,
2013-06-14 07:46:00,56.3,54.6,29.69,NW,322,0.0,0.0,94,0.00,,,0.00,158.00,VWS V14.00,2013-06-14 11:46:00,
2013-06-14 07:51:00,56.5,54.8,29.69,NW,322,0.0,0.0,94,0.00,,,0.00,123.00,VWS V14.00,2013-06-14 11:51:00,
2013-06-14 07:56:00,56.8,54.8,29.70,NW,322,0.0,2.0,93,0.00,,,0.00,172.00,VWS V14.00,2013-06-14 11:56:00,
2013-06-14 08:01:00,57.1,55.1,29.70,NW,322,0.0,2.0,93,0.00,,,0.00,311.00,VWS V14.00,2013-06-14 12:01:00,
2013-06-14 08:06:00,57.4,55.1,29.70,NW,322,1.0,2.0,92,0.00,,,0.00,362.00,VWS V14.00,2013-06-14 12:06:00,
2013-06-14 08:11:00,57.8,55.5,29.70,NW,322,1.0,3.0,92,0.00,,,0.00,403.00,VWS V14.00,2013-06-14 12:11:00,
2013-06-14 08:16:00,58.3,55.7,29.70,NNW,329,0.0,1.0,91,0.00,,,0.00,462.00,VWS V14.00,2013-06-14 12:16:00,
2013-06-14 08:21:00,58.9,56.0,29.70,NNW,343,2.0,4.0,90,0.00,,,0.00,540.00,VWS V14.00,2013-06-14 12:21:00,
2013-06-14 08:26:00,59.5,56.3,29.70,NNW,347,0.0,2.0,89,0.00,,,0.00,410.00,VWS V14.00,2013-06-14 12:26:00,
2013-06-14 08:31:00,60.1,56.2,29.70,NNW,347,0.0,1.0,87,0.00,,,0.00,364.00,VWS V14.00,2013-06-14 12:31:00,
2013-06-14 08:36:00,60.7,56.5,29.71,NNW,347,0.0,0.0,86,0.00,,,0.00,504.00,VWS V14.00,2013-06-14 12:36:00,
2013-06-14 08:41:00,61.2,56.7,29.71,NW,311,0.0,3.0,85,0.00,,,0.00,476.00,VWS V14.00,2013-06-14 12:41:00,
2013-06-14 08:46:00,61.9,57.3,29.71,WNW,287,0.0,0.0,85,0.00,,,0.00,394.00,VWS V14.00,2013-06-14 12:46:00,
2013-06-14 08:51:00,62.3,57.1,29.71,WNW,284,0.0,1.0,83,0.00,,,0.00,469.00,VWS V14.00,2013-06-14 12:51:00,
2013-06-14 08:56:00,62.8,56.5,29.71,NW,313,1.0,5.0,80,0.00,,,0.00,504.00,VWS V14.00,2013-06-14 12:56:00,
2013-06-14 09:01:00,63.5,56.9,29.70,ESE,113,0.0,0.0,79,0.00,,,0.00,591.00,VWS V14.00,2013-06-14 13:01:00,
2013-06-14 09:06:00,64.3,57.7,29.70,East,83,1.0,4.0,79,0.00,,,0.00,475.00,VWS V14.00,2013-06-14 13:06:00,
2013-06-14 09:11:00,64.8,57.1,29.70,East,90,0.0,1.0,76,0.00,,,0.00,636.00,VWS V14.00,2013-06-14 13:11:00,
2013-06-14 09:16:00,65.6,58.6,29.71,SE,135,0.0,1.0,78,0.00,,,0.00,642.00,VWS V14.00,2013-06-14 13:16:00,
2013-06-14 09:21:00,66.2,59.2,29.70,SSE,154,4.0,5.0,78,0.00,,,0.00,670.00,VWS V14.00,2013-06-14 13:21:00,
2013-06-14 09:26:00,66.5,59.1,29.71,SSE,165,2.0,3.0,77,0.00,,,0.00,647.00,VWS V14.00,2013-06-14 13:26:00,
2013-06-14 09:31:00,66.7,60.0,29.70,SSE,157,3.0,4.0,79,0.00,,,0.00,661.00,VWS V14.00,2013-06-14 13:31:00,
2013-06-14 09:36:00,66.9,59.8,29.70,SSE,162,2.0,4.0,78,0.00,,,0.00,647.00,VWS V14.00,2013-06-14 13:36:00,
2013-06-14 09:41:00,66.9,59.5,29.70,SSE,161,0.0,1.0,77,0.00,,,0.00,659.00,VWS V14.00,2013-06-14 13:41:00,
2013-06-14 09:46:00,66.7,59.3,29.70,SSE,161,3.0,4.0,77,0.00,,,0.00,645.00,VWS V14.00,2013-06-14 13:46:00,
2013-06-14 09:51:00,66.7,59.3,29.71,SSE,157,0.0,4.0,77,0.00,,,0.00,566.00,VWS V14.00,2013-06-14 13:51:00,
2013-06-14 09:56:00,66.7,59.3,29.71,SSE,159,3.0,3.0,77,0.00,,,0.00,680.00,VWS V14.00,2013-06-14 13:56:00,
2013-06-14 10:01:00,66.6,59.2,29.71,SSE,159,0.0,1.0,77,0.00,,,0.00,752.00,VWS V14.00,2013-06-14 14:01:00,
2013-06-14 10:06:00,66.6,59.2,29.71,SSE,155,1.0,2.0,77,0.00,,,0.00,775.00,VWS V14.00,2013-06-14 14:06:00,
2013-06-14 10:11:00,66.9,59.8,29.71,SSE,157,5.0,5.0,78,0.00,,,0.00,612.00,VWS V14.00,2013-06-14 14:11:00,
2013-06-14 10:16:00,66.9,59.8,29.71,South,169,2.0,2.0,78,0.00,,,0.00,758.00,VWS V14.00,2013-06-14 14:16:00,
2013-06-14 10:21:00,67.3,60.2,29.71,SSE,162,1.0,2.0,78,0.00,,,0.00,765.00,VWS V14.00,2013-06-14 14:21:00,
2013-06-14 10:26:00,67.5,60.0,29.72,SSE,168,1.0,1.0,77,0.00,,,0.00,810.00,VWS V14.00,2013-06-14 14:26:00,
2013-06-14 10:31:00,67.7,59.5,29.72,South,171,0.0,3.0,75,0.00,,,0.00,828.00,VWS V14.00,2013-06-14 14:31:00,
2013-06-14 10:36:00,68.0,60.2,29.72,South,188,3.0,6.0,76,0.00,,,0.00,831.00,VWS V14.00,2013-06-14 14:36:00,
2013-06-14 10:41:00,68.1,59.9,29.72,SSW,209,2.0,3.0,75,0.00,,,0.00,833.00,VWS V14.00,2013-06-14 14:41:00,
2013-06-14 10:46:00,68.6,61.1,29.72,SSW,195,2.0,3.0,77,0.00,,,0.00,851.00,VWS V14.00,2013-06-14 14:46:00,
2013-06-14 10:51:00,69.0,60.8,29.72,South,173,2.0,2.0,75,0.00,,,0.00,851.00,VWS V14.00,2013-06-14 14:51:00,
2013-06-14 10:56:00,69.3,61.4,29.72,SE,135,1.0,3.0,76,0.00,,,0.00,729.00,VWS V14.00,2013-06-14 14:56:00,
2013-06-14 11:01:00,69.7,61.0,29.72,East,94,2.0,2.0,74,0.00,,,0.00,911.00,VWS V14.00,2013-06-14 15:01:00,
2013-06-14 11:06:00,70.1,60.7,29.72,ENE,76,1.0,1.0,72,0.00,,,0.00,919.00,VWS V14.00,2013-06-14 15:06:00,
2013-06-14 11:11:00,70.3,59.2,29.72,East,80,1.0,1.0,68,0.00,,,0.00,925.00,VWS V14.00,2013-06-14 15:11:00,
2013-06-14 11:16:00,70.9,61.4,29.72,East,79,5.0,5.0,72,0.00,,,0.00,933.00,VWS V14.00,2013-06-14 15:16:00,
2013-06-14 11:21:00,71.1,60.4,29.72,East,84,1.0,4.0,69,0.00,,,0.00,972.00,VWS V14.00,2013-06-14 15:21:00,
2013-06-14 11:26:00,71.3,59.8,29.72,NE,43,1.0,2.0,67,0.00,,,0.00,935.00,VWS V14.00,2013-06-14 15:26:00,
2013-06-14 11:31:00,71.5,60.4,29.72,NE,47,3.0,5.0,68,0.00,,,0.00,962.00,VWS V14.00,2013-06-14 15:31:00,
2013-06-14 11:36:00,71.3,59.4,29.72,ESE,108,4.0,7.0,66,0.00,,,0.00,1011.00,VWS V14.00,2013-06-14 15:36:00,
2013-06-14 11:41:00,71.3,60.6,29.72,NE,44,2.0,4.0,69,0.00,,,0.00,1065.00,VWS V14.00,2013-06-14 15:41:00,
2013-06-14 11:46:00,71.4,59.5,29.72,East,90,1.0,4.0,66,0.00,,,0.00,967.00,VWS V14.00,2013-06-14 15:46:00,
2013-06-14 11:51:00,71.6,58.8,29.72,ESE,102,4.0,5.0,64,0.00,,,0.00,209.00,VWS V14.00,2013-06-14 15:51:00,
2013-06-14 11:56:00,71.7,57.1,29.72,NNE,27,1.0,10.0,60,0.00,,,0.00,947.00,VWS V14.00,2013-06-14 15:56:00,
2013-06-14 12:01:00,71.8,57.6,29.72,SE,138,4.0,6.0,61,0.00,,,0.00,956.00,VWS V14.00,2013-06-14 16:01:00,
2013-06-14 12:06:00,72.0,59.2,29.72,East,100,1.0,4.0,64,0.00,,,0.00,942.00,VWS V14.00,2013-06-14 16:06:00,
2013-06-14 12:11:00,72.0,60.0,29.72,NE,46,1.0,5.0,66,0.00,,,0.00,956.00,VWS V14.00,2013-06-14 16:11:00,
2013-06-14 12:16:00,71.9,59.9,29.71,East,83,1.0,8.0,66,0.00,,,0.00,958.00,VWS V14.00,2013-06-14 16:16:00,
2013-06-14 12:21:00,71.9,60.4,29.71,East,95,1.0,3.0,67,0.00,,,0.00,954.00,VWS V14.00,2013-06-14 16:21:00,
2013-06-14 12:26:00,72.1,58.4,29.71,ESE,105,0.0,5.0,62,0.00,,,0.00,962.00,VWS V14.00,2013-06-14 16:26:00,
2013-06-14 12:31:00,72.1,59.7,29.71,East,80,3.0,8.0,65,0.00,,,0.00,962.00,VWS V14.00,2013-06-14 16:31:00,
2013-06-14 12:36:00,72.2,59.4,29.71,ENE,74,5.0,6.0,64,0.00,,,0.00,967.00,VWS V14.00,2013-06-14 16:36:00,
2013-06-14 12:41:00,72.4,59.5,29.71,East,79,2.0,7.0,64,0.00,,,0.00,974.00,VWS V14.00,2013-06-14 16:41:00,
2013-06-14 12:46:00,72.4,58.2,29.71,East,85,6.0,8.0,61,0.00,,,0.00,974.00,VWS V14.00,2013-06-14 16:46:00,
2013-06-14 12:51:00,72.3,58.6,29.71,ESE,112,3.0,5.0,62,0.00,,,0.00,967.00,VWS V14.00,2013-06-14 16:51:00,
2013-06-14 12:56:00,72.6,60.2,29.72,ENE,73,1.0,3.0,65,0.00,,,0.00,997.00,VWS V14.00,2013-06-14 16:56:00,
2013-06-14 13:01:00,72.6,59.7,29.72,ENE,65,1.0,1.0,64,0.00,,,0.00,974.00,VWS V14.00,2013-06-14 17:01:00,
2013-06-14 13:06:00,72.9,60.9,29.72,NE,43,6.0,8.0,66,0.00,,,0.00,983.00,VWS V14.00,2013-06-14 17:06:00,
2013-06-14 13:11:00,72.9,59.6,29.72,ENE,63,1.0,2.0,63,0.00,,,0.00,1013.00,VWS V14.00,2013-06-14 17:11:00,
2013-06-14 13:16:00,73.0,59.7,29.72,ESE,115,5.0,8.0,63,0.00,,,0.00,988.00,VWS V14.00,2013-06-14 17:16:00,
2013-06-14 13:21:00,73.1,61.1,29.72,ENE,75,3.0,5.0,66,0.00,,,0.00,1013.00,VWS V14.00,2013-06-14 17:21:00,
2013-06-14 13:26:00,73.3,59.5,29.72,East,82,1.0,3.0,62,0.00,,,0.00,1005.00,VWS V14.00,2013-06-14 17:26:00,
2013-06-14 13:31:00,73.4,59.6,29.72,SE,134,1.0,4.0,62,0.00,,,0.00,969.00,VWS V14.00,2013-06-14 17:31:00,
2013-06-14 13:36:00,73.5,60.2,29.72,ESE,105,2.0,4.0,63,0.00,,,0.00,969.00,VWS V14.00,2013-06-14 17:36:00,
2013-06-14 13:41:00,73.7,61.2,29.72,ESE,109,1.0,4.0,65,0.00,,,0.00,995.00,VWS V14.00,2013-06-14 17:41:00,
2013-06-14 13:46:00,73.9,60.5,29.72,ESE,113,4.0,5.0,63,0.00,,,0.00,965.00,VWS V14.00,2013-06-14 17:46:00,
2013-06-14 13:51:00,73.8,59.1,29.72,East,82,3.0,8.0,60,0.00,,,0.00,988.00,VWS V14.00,2013-06-14 17:51:00,
2013-06-14 13:56:00,73.8,60.0,29.72,SE,136,0.0,3.0,62,0.00,,,0.00,1005.00,VWS V14.00,2013-06-14 17:56:00,
2013-06-14 14:01:00,73.9,60.5,29.72,East,92,0.0,9.0,63,0.00,,,0.00,998.00,VWS V14.00,2013-06-14 18:01:00,
2013-06-14 14:06:00,74.0,60.2,29.72,East,88,2.0,2.0,62,0.00,,,0.00,958.00,VWS V14.00,2013-06-14 18:06:00,
2013-06-14 14:11:00,74.2,58.5,29.72,East,101,3.0,3.0,58,0.00,,,0.00,970.00,VWS V14.00,2013-06-14 18:11:00,
2013-06-14 14:16:00,74.4,59.2,29.72,ENE,63,5.0,5.0,59,0.00,,,0.00,185.00,VWS V14.00,2013-06-14 18:16:00,
2013-06-14 14:21:00,73.9,59.2,29.72,ENE,61,1.0,3.0,60,0.00,,,0.00,1020.00,VWS V14.00,2013-06-14 18:21:00,
2013-06-14 14:26:00,73.7,58.5,29.72,ESE,103,2.0,5.0,59,0.00,,,0.00,1004.00,VWS V14.00,2013-06-14 18:26:00,
2013-06-14 14:31:00,73.6,59.3,29.73,SE,128,4.0,7.0,61,0.00,,,0.00,271.00,VWS V14.00,2013-06-14 18:31:00,
2013-06-14 14:36:00,73.3,59.5,29.72,SE,127,1.0,5.0,62,0.00,,,0.00,283.00,VWS V14.00,2013-06-14 18:36:00,
2013-06-14 14:41:00,72.6,59.3,29.72,East,83,0.0,2.0,63,0.00,,,0.00,156.00,VWS V14.00,2013-06-14 18:41:00,
2013-06-14 14:46:00,72.0,58.7,29.72,ESE,110,0.0,1.0,63,0.00,,,0.00,127.00,VWS V14.00,2013-06-14 18:46:00,
2013-06-14 14:51:00,72.1,60.5,29.72,East,82,6.0,7.0,67,0.00,,,0.00,923.00,VWS V14.00,2013-06-14 18:51:00,
2013-06-14 14:56:00,72.4,60.4,29.72,ENE,62,3.0,4.0,66,0.00,,,0.00,905.00,VWS V14.00,2013-06-14 18:56:00,
2013-06-14 15:01:00,72.7,59.8,29.72,NNE,30,2.0,2.0,64,0.00,,,0.00,313.00,VWS V14.00,2013-06-14 19:01:00,
2013-06-14 15:06:00,72.5,59.2,29.72,ESE,105,4.0,4.0,63,0.00,,,0.00,195.00,VWS V14.00,2013-06-14 19:06:00,
2013-06-14 15:11:00,72.2,58.9,29.72,SE,136,4.0,4.0,63,0.00,,,0.00,230.00,VWS V14.00,2013-06-14 19:11:00,
2013-06-14 15:16:00,72.1,60.1,29.72,ESE,111,0.0,2.0,66,0.00,,,0.00,1028.00,VWS V14.00,2013-06-14 19:16:00,
2013-06-14 15:21:00,72.6,60.2,29.73,East,94,1.0,10.0,65,0.00,,,0.00,357.00,VWS V14.00,2013-06-14 19:21:00,
2013-06-14 15:26:00,73.0,60.5,29.72,ESE,110,2.0,3.0,65,0.00,,,0.00,1018.00,VWS V14.00,2013-06-14 19:26:00,
2013-06-14 15:31:00,73.2,60.3,29.72,SE,136,3.0,8.0,64,0.00,,,0.00,930.00,VWS V14.00,2013-06-14 19:31:00,
2013-06-14 15:36:00,73.1,59.8,29.72,ESE,121,0.0,1.0,63,0.00,,,0.00,174.00,VWS V14.00,2013-06-14 19:36:00,
2013-06-14 15:41:00,72.6,58.8,29.72,ESE,107,2.0,5.0,62,0.00,,,0.00,174.00,VWS V14.00,2013-06-14 19:41:00,
2013-06-14 15:46:00,72.2,59.4,29.72,ESE,111,0.0,2.0,64,0.00,,,0.00,162.00,VWS V14.00,2013-06-14 19:46:00,
2013-06-14 15:51:00,72.3,60.7,29.72,SE,145,2.0,3.0,67,0.00,,,0.00,863.00,VWS V14.00,2013-06-14 19:51:00,
2013-06-14 15:56:00,72.5,59.2,29.71,SE,127,6.0,6.0,63,0.00,,,0.00,666.00,VWS V14.00,2013-06-14 19:56:00,
2013-06-14 16:01:00,72.5,59.6,29.71,SSE,153,1.0,2.0,64,0.00,,,0.00,886.00,VWS V14.00,2013-06-14 20:01:00,
2013-06-14 16:06:00,72.3,59.0,29.72,ESE,103,0.0,1.0,63,0.00,,,0.00,167.00,VWS V14.00,2013-06-14 20:06:00,
2013-06-14 16:11:00,71.8,58.5,29.72,ESE,117,0.0,2.0,63,0.00,,,0.00,146.00,VWS V14.00,2013-06-14 20:11:00,
2013-06-14 16:16:00,71.5,58.7,29.72,ENE,78,4.0,5.0,64,0.00,,,0.00,726.00,VWS V14.00,2013-06-14 20:16:00,
2013-06-14 16:21:00,71.6,59.2,29.72,SE,129,0.0,5.0,65,0.00,,,0.00,726.00,VWS V14.00,2013-06-14 20:21:00,
2013-06-14 16:26:00,71.9,58.6,29.72,SE,142,1.0,2.0,63,0.00,,,0.00,766.00,VWS V14.00,2013-06-14 20:26:00,
2013-06-14 16:31:00,72.4,59.5,29.72,ESE,108,2.0,9.0,64,0.00,,,0.00,777.00,VWS V14.00,2013-06-14 20:31:00,
2013-06-14 16:36:00,72.9,60.0,29.72,SE,130,5.0,6.0,64,0.00,,,0.00,763.00,VWS V14.00,2013-06-14 20:36:00,
2013-06-14 16:41:00,73.1,59.8,29.72,South,184,1.0,4.0,63,0.00,,,0.00,737.00,VWS V14.00,2013-06-14 20:41:00,
2013-06-14 16:46:00,73.0,59.7,29.72,ESE,121,1.0,3.0,63,0.00,,,0.00,670.00,VWS V14.00,2013-06-14 20:46:00,
2013-06-14 16:51:00,72.9,59.6,29.72,SSE,166,3.0,7.0,63,0.00,,,0.00,659.00,VWS V14.00,2013-06-14 20:51:00,
2013-06-14 16:56:00,72.8,59.5,29.72,ESE,105,0.0,2.0,63,0.00,,,0.00,684.00,VWS V14.00,2013-06-14 20:56:00,
2013-06-14 17:01:00,72.8,59.0,29.72,ESE,119,2.0,3.0,62,0.00,,,0.00,696.00,VWS V14.00,2013-06-14 21:01:00,
2013-06-14 17:06:00,72.9,59.6,29.72,SE,131,2.0,5.0,63,0.00,,,0.00,211.00,VWS V14.00,2013-06-14 21:06:00,
2013-06-14 17:11:00,72.7,58.9,29.73,East,99,2.0,7.0,62,0.00,,,0.00,65.00,VWS V14.00,2013-06-14 21:11:00,
2013-06-14 17:16:00,71.8,58.5,29.74,NE,46,13.0,13.0,63,0.00,,,0.00,72.00,VWS V14.00,2013-06-14 21:16:00,
2013-06-14 17:21:00,70.5,58.2,29.74,NE,38,0.0,8.0,65,0.02,,,0.02,141.00,VWS V14.00,2013-06-14 21:21:00,
2013-06-14 17:26:00,69.6,59.0,29.74,NNW,340,0.0,0.0,69,0.02,,,0.02,155.00,VWS V14.00,2013-06-14 21:26:00,
2013-06-14 17:31:00,69.3,60.3,29.73,NNW,339,3.0,3.0,73,0.02,,,0.02,482.00,VWS V14.00,2013-06-14 21:31:00,
2013-06-14 17:36:00,69.1,60.1,29.73,NNW,339,0.0,1.0,73,0.02,,,0.02,461.00,VWS V14.00,2013-06-14 21:36:00,
2013-06-14 17:41:00,69.0,60.4,29.73,NNW,339,0.0,0.0,74,0.02,,,0.02,72.00,VWS V14.00,2013-06-14 21:41:00,
2013-06-14 17:46:00,68.8,60.2,29.73,NNW,339,0.0,0.0,74,0.02,,,0.02,408.00,VWS V14.00,2013-06-14 21:46:00,
2013-06-14 17:51:00,68.8,60.6,29.73,NNW,339,0.0,1.0,75,0.02,,,0.02,492.00,VWS V14.00,2013-06-14 21:51:00,
2013-06-14 17:56:00,68.8,60.2,29.73,NNW,338,1.0,1.0,74,0.02,,,0.02,468.00,VWS V14.00,2013-06-14 21:56:00,
2013-06-14 18:01:00,69.0,60.0,29.73,NNW,339,1.0,2.0,73,0.02,,,0.02,403.00,VWS V14.00,2013-06-14 22:01:00,
2013-06-14 18:06:00,69.3,60.7,29.73,NNW,339,4.0,4.0,74,0.02,,,0.02,306.00,VWS V14.00,2013-06-14 22:06:00,
2013-06-14 18:11:00,69.4,60.8,29.73,NNW,329,0.0,1.0,74,0.02,,,0.02,223.00,VWS V14.00,2013-06-14 22:11:00,
2013-06-14 18:16:00,69.3,60.7,29.73,NNW,331,0.0,0.0,74,0.02,,,0.02,151.00,VWS V14.00,2013-06-14 22:16:00,
2013-06-14 18:21:00,69.2,61.0,29.73,NNW,331,0.0,1.0,75,0.00,,,0.02,165.00,VWS V14.00,2013-06-14 22:21:00,
2013-06-14 18:26:00,69.0,60.8,29.73,NNW,336,1.0,3.0,75,0.00,,,0.02,130.00,VWS V14.00,2013-06-14 22:26:00,
2013-06-14 18:31:00,68.8,60.6,29.73,NNW,336,0.0,1.0,75,0.00,,,0.02,95.00,VWS V14.00,2013-06-14 22:31:00,
2013-06-14 18:36:00,68.6,60.4,29.74,NNW,336,3.0,4.0,75,0.00,,,0.02,74.00,VWS V14.00,2013-06-14 22:36:00,
2013-06-14 18:41:00,68.5,60.6,29.75,NNW,336,1.0,1.0,76,0.00,,,0.02,306.00,VWS V14.00,2013-06-14 22:41:00,
2013-06-14 18:46:00,68.4,60.9,29.75,NNW,336,0.0,2.0,77,0.00,,,0.02,325.00,VWS V14.00,2013-06-14 22:46:00,
2013-06-14 18:51:00,68.5,60.6,29.75,NNW,341,2.0,3.0,76,0.00,,,0.02,332.00,VWS V14.00,2013-06-14 22:51:00,
2013-06-14 18:56:00,68.7,60.1,29.75,NNW,338,5.0,6.0,74,0.00,,,0.02,267.00,VWS V14.00,2013-06-14 22:56:00,
2013-06-14 19:01:00,69.0,58.8,29.75,NNE,19,2.0,5.0,70,0.00,,,0.02,197.00,VWS V14.00,2013-06-14 23:01:00,
2013-06-14 19:06:00,69.2,58.6,29.75,NNW,344,1.0,6.0,69,0.00,,,0.02,60.00,VWS V14.00,2013-06-14 23:06:00,
2013-06-14 19:11:00,69.3,58.7,29.75,NNW,346,1.0,3.0,69,0.00,,,0.02,40.00,VWS V14.00,2013-06-14 23:11:00,
2013-06-14 19:16:00,69.2,58.6,29.75,NNW,345,1.0,1.0,69,0.00,,,0.02,40.00,VWS V14.00,2013-06-14 23:16:00,
2013-06-14 19:21:00,69.0,58.8,29.75,NNW,338,4.0,4.0,70,0.00,,,0.02,65.00,VWS V14.00,2013-06-14 23:21:00,
2013-06-14 19:26:00,68.5,57.9,29.76,NNW,344,6.0,6.0,69,0.00,,,0.02,67.00,VWS V14.00,2013-06-14 23:26:00,
2013-06-14 19:31:00,68.0,57.1,29.76,NNW,348,2.0,6.0,68,0.00,,,0.02,32.00,VWS V14.00,2013-06-14 23:31:00,
2013-06-14 19:36:00,67.6,56.7,29.76,NNW,346,2.0,5.0,68,0.00,,,0.02,102.00,VWS V14.00,2013-06-14 23:36:00,
2013-06-14 19:41:00,67.2,56.3,29.76,NNW,345,3.0,3.0,68,0.00,,,0.02,76.00,VWS V14.00,2013-06-14 23:41:00,
2013-06-14 19:46:00,67.0,56.5,29.76,NNW,339,2.0,4.0,69,0.00,,,0.02,35.00,VWS V14.00,2013-06-14 23:46:00,
2013-06-14 19:51:00,66.8,55.9,29.76,NNW,334,4.0,4.0,68,0.00,,,0.02,33.00,VWS V14.00,2013-06-14 23:51:00,
2013-06-14 19:57:00,66.7,55.8,29.76,NNW,341,0.0,5.0,68,0.00,,,0.02,26.00,VWS V14.00,2013-06-14 23:57:00,
2013-06-14 20:01:00,66.4,55.5,29.76,WNW,301,0.0,1.0,68,0.00,,,0.02,26.00,VWS V14.00,2013-06-15 00:01:00,
2013-06-14 20:07:00,66.2,55.7,29.76,NNW,338,0.0,0.0,69,0.00,,,0.02,25.00,VWS V14.00,2013-06-15 00:07:00,
2013-06-14 20:12:00,65.9,55.5,29.76,NNW,332,3.0,3.0,69,0.00,,,0.02,19.00,VWS V14.00,2013-06-15 00:12:00,
2013-06-14 20:17:00,65.6,55.6,29.76,NNW,338,1.0,5.0,70,0.00,,,0.02,16.00,VWS V14.00,2013-06-15 00:17:00,
2013-06-14 20:21:00,65.3,55.7,29.76,North,351,2.0,2.0,71,0.00,,,0.02,12.00,VWS V14.00,2013-06-15 00:21:00,
2013-06-14 20:26:00,64.9,55.3,29.76,NNW,345,0.0,3.0,71,0.00,,,0.02,11.00,VWS V14.00,2013-06-15 00:26:00,
2013-06-14 20:31:00,64.6,55.0,29.76,NNW,334,0.0,1.0,71,0.00,,,0.02,7.00,VWS V14.00,2013-06-15 00:31:00,
2013-06-14 20:37:00,64.3,55.1,29.76,NNW,327,1.0,3.0,72,0.00,,,0.02,5.00,VWS V14.00,2013-06-15 00:37:00,
2013-06-14 20:42:00,64.0,55.2,29.76,NW,326,0.0,0.0,73,0.00,,,0.02,0.00,VWS V14.00,2013-06-15 00:42:00,
2013-06-14 20:47:00,63.6,54.8,29.76,NNW,332,0.0,1.0,73,0.00,,,0.02,0.00,VWS V14.00,2013-06-15 00:47:00,
2013-06-14 20:52:00,63.4,55.0,29.77,NNW,329,0.0,2.0,74,0.00,,,0.02,0.00,VWS V14.00,2013-06-15 00:52:00,
2013-06-14 20:57:00,63.1,54.7,29.76,NNW,329,0.0,3.0,74,0.00,,,0.02,0.00,VWS V14.00,2013-06-15 00:57:00,
2013-06-14 21:02:00,63.0,54.2,29.77,NNW,348,3.0,5.0,73,0.00,,,0.02,0.00,VWS V14.00,2013-06-15 01:02:00,
2013-06-14 21:07:00,62.9,54.1,29.76,NNW,338,0.0,6.0,73,0.00,,,0.02,0.00,VWS V14.00,2013-06-15 01:07:00,
2013-06-14 21:12:00,63.0,53.8,29.77,NNW,343,1.0,5.0,72,0.00,,,0.02,0.00,VWS V14.00,2013-06-15 01:12:00,
2013-06-14 21:17:00,63.0,53.5,29.77,NNW,342,0.0,5.0,71,0.00,,,0.02,0.00,VWS V14.00,2013-06-15 01:17:00,
2013-06-14 21:22:00,62.9,53.4,29.77,NNW,339,0.0,6.0,71,0.00,,,0.02,0.00,VWS V14.00,2013-06-15 01:22:00,
2013-06-14 21:27:00,62.8,53.3,29.77,NNW,335,5.0,6.0,71,0.00,,,0.02,0.00,VWS V14.00,2013-06-15 01:27:00,
2013-06-14 21:32:00,62.6,53.1,29.77,NNW,340,5.0,7.0,71,0.00,,,0.02,0.00,VWS V14.00,2013-06-15 01:32:00,
2013-06-14 21:37:00,62.3,53.2,29.77,NNW,333,3.0,9.0,72,0.00,,,0.02,0.00,VWS V14.00,2013-06-15 01:37:00,
2013-06-14 21:42:00,62.0,52.5,29.78,NNW,337,5.0,7.0,71,0.00,,,0.02,0.00,VWS V14.00,2013-06-15 01:42:00,
2013-06-14 21:47:00,61.8,51.9,29.78,NNW,327,3.0,5.0,70,0.00,,,0.02,0.00,VWS V14.00,2013-06-15 01:47:00,
2013-06-14 21:52:00,61.7,52.2,29.78,NNW,333,4.0,7.0,71,0.00,,,0.02,0.00,VWS V14.00,2013-06-15 01:52:00,
2013-06-14 21:57:00,61.6,51.7,29.78,NNW,344,6.0,10.0,70,0.00,,,0.02,0.00,VWS V14.00,2013-06-15 01:57:00,
2013-06-14 22:02:00,61.5,51.2,29.78,NNW,331,4.0,7.0,69,0.00,,,0.02,0.00,VWS V14.00,2013-06-15 02:02:00,
2013-06-14 22:07:00,61.5,51.2,29.78,NNW,336,3.0,7.0,69,0.00,,,0.02,0.00,VWS V14.00,2013-06-15 02:07:00,
2013-06-14 22:12:00,61.4,50.8,29.78,NNW,327,4.0,8.0,68,0.00,,,0.02,0.00,VWS V14.00,2013-06-15 02:12:00,
2013-06-14 22:17:00,61.4,50.8,29.78,NNW,344,5.0,12.0,68,0.00,,,0.02,0.00,VWS V14.00,2013-06-15 02:17:00,
2013-06-14 22:22:00,61.4,50.4,29.78,NNW,337,3.0,10.0,67,0.00,,,0.02,0.00,VWS V14.00,2013-06-15 02:22:00,
2013-06-14 22:27:00,61.3,49.9,29.79,NNW,338,2.0,6.0,66,0.00,,,0.02,0.00,VWS V14.00,2013-06-15 02:27:00,
2013-06-14 22:32:00,61.3,49.5,29.79,NNW,333,3.0,5.0,65,0.00,,,0.02,0.00,VWS V14.00,2013-06-15 02:32:00,
2013-06-14 22:37:00,61.3,49.5,29.78,NW,318,2.0,9.0,65,0.00,,,0.02,0.00,VWS V14.00,2013-06-15 02:37:00,
2013-06-14 22:42:00,61.2,49.3,29.79,NW,326,2.0,6.0,65,0.00,,,0.02,0.00,VWS V14.00,2013-06-15 02:42:00,
2013-06-14 22:47:00,61.1,49.3,29.79,NNW,348,5.0,8.0,65,0.00,,,0.02,0.00,VWS V14.00,2013-06-15 02:47:00,
2013-06-14 22:52:00,61.0,48.8,29.79,North,350,4.0,14.0,64,0.00,,,0.02,0.00,VWS V14.00,2013-06-15 02:52:00,
2013-06-14 22:57:00,61.0,48.8,29.79,NNW,339,4.0,7.0,64,0.00,,,0.02,0.00,VWS V14.00,2013-06-15 02:57:00,
2013-06-14 23:02:00,61.0,48.3,29.79,NNW,331,9.0,9.0,63,0.00,,,0.02,0.00,VWS V14.00,2013-06-15 03:02:00,
2013-06-14 23:07:00,60.9,47.8,29.80,NNW,340,4.0,9.0,62,0.00,,,0.02,0.00,VWS V14.00,2013-06-15 03:07:00,
2013-06-14 23:12:00,60.9,47.8,29.79,North,355,2.0,9.0,62,0.00,,,0.02,0.00,VWS V14.00,2013-06-15 03:12:00,
2013-06-14 23:17:00,60.8,47.7,29.80,NNW,337,6.0,7.0,62,0.00,,,0.02,0.00,VWS V14.00,2013-06-15 03:17:00,
2013-06-14 23:22:00,60.8,47.3,29.80,NNW,342,4.0,6.0,61,0.00,,,0.02,0.00,VWS V14.00,2013-06-15 03:22:00,
2013-06-14 23:27:00,60.7,47.2,29.80,North,355,4.0,4.0,61,0.00,,,0.02,0.00,VWS V14.00,2013-06-15 03:27:00,
2013-06-14 23:32:00,60.8,46.8,29.80,North,351,0.0,6.0,60,0.00,,,0.02,0.00,VWS V14.00,2013-06-15 03:32:00,
2013-06-14 23:37:00,60.8,46.4,29.81,NW,325,12.0,12.0,59,0.00,,,0.02,0.00,VWS V14.00,2013-06-15 03:37:00,
2013-06-14 23:42:00,61.0,46.6,29.80,NNW,346,7.0,10.0,59,0.00,,,0.02,0.00,VWS V14.00,2013-06-15 03:42:00,
2013-06-14 23:47:00,61.1,46.2,29.81,WNW,297,7.0,8.0,58,0.00,,,0.02,0.00,VWS V14.00,2013-06-15 03:47:00,
2013-06-14 23:53:00,61.2,45.9,29.81,NNW,344,13.0,14.0,57,0.00,,,0.02,0.00,VWS V14.00,2013-06-15 03:53:00,
2013-06-14 23:58:00,61.3,46.0,29.81,NNW,341,7.0,14.0,57,0.00,,,0.02,0.00,VWS V14.00,2013-06-15 03:58:00,